[[{"header":{"parameterUnit":"m.s-1","parameterCategory":1,"la1":30.2991,"la2":30.254,"lo1":-89.0895,"lo2":-89.0444,"dy":0.0017,"dx":0.0017,"nx":28,"ny":28,"refTime":"2025-12-05T09:00:00:Z","depth":0,"parameterNumber":2,"parameterNumberName":"U-component_of_WINDS"},"data":[0,0,0,0,0,0,0,0,0,0,0,0,0,0,0,0,0,0,0,0,0,0,0,0,0,0,0,0,0,0,0,0,0,0,0,0,0,0,0,0,0,0,0,0,0,0,0,0,0,0,0,0,0,0,0,0,0,0,0.0699,0.0699,0,0.0665,0.0665,0.0665,0.0659,0.0659,0.0659,0.066,0.0624,0.0623,0.0621,0,0,0,0,0,0,0,0,0,0,0,0,0,0.0759,0.0758,0.0699,0.0699,0.0698,0.0665,0.0665,0.0665,0.0659,0.0659,0.0659,0.066,0.0624,0.0623,0.0621,0,0,0,0,0,0,0,0,0,0,0,0,0,0.073,0.0757,0.0699,0.0692,0.0691,0.0666,0.0665,0.0664,0.0659,0.0659,0.066,0.066,0.0625,0.0623,0.0621,0.0601,0,0,0.0615,0.0615,0,0,0,0,0,0,0,0,0.0731,0.0728,0.0693,0.0692,0.0691,0.0667,0.0673,0.0643,0.0659,0.0671,0.066,0.066,0.0638,0.0635,0.0627,0.0599,0.0598,0.0615,0.0614,0.0613,0.0613,0,0,0,0,0,0,0,0.0733,0.0729,0.0686,0.0693,0.0691,0.069,0.0686,0.0667,0.0652,0.067,0.0669,0.0665,0.0637,0.0629,0.0626,0.0597,0.0615,0.0614,0.0612,0.0612,0.0552,0.0551,0,0,0,0,0,0,0.0737,0.0731,0.0687,0.0685,0.0713,0.0688,0.0684,0.0674,0.0652,0.0649,0.0665,0.0665,0.0632,0.0629,0.0625,0.0601,0.0613,0.0612,0.0611,0.0552,0.0552,0.0551,0,0,0,0,0,0,0.0738,0.0733,0.0688,0.0708,0.0702,0.0687,0.0675,0.0673,0.0665,0.0649,0.0646,0.066,0.0632,0.0628,0.0607,0.0599,0.0611,0.0609,0.0553,0.0552,0.0552,0.0551,0,0,0,0,0,0,0.074,0.0734,0.0726,0.0708,0.0701,0.0671,0.0675,0.0672,0.0662,0.0662,0.0643,0.064,0.0632,0.061,0.0605,0.0597,0.0608,0.0554,0.0553,0.0552,0.0552,0.055,0.0549,0,0,0,0,0,0.0742,0.0726,0.0725,0.072,0.0691,0.067,0.0667,0.0658,0.0662,0.0654,0.0643,0.0641,0.0601,0.0608,0.0603,0.0594,0.0554,0.0553,0.0552,0.0552,0.0551,0.0549,0,0,0,0,0,0,0.0743,0.0724,0.0722,0.07,0.0687,0.0669,0.0659,0.0656,0.0642,0.0642,0.0632,0.0628,0.0608,0.0599,0.0607,0.0574,0.0578,0.0576,0.058,0.0578,0.0577,0.0579,0.0606,0,0,0,0,0,0.0741,0.0726,0.071,0.0692,0.0686,0.0674,0.0664,0.0659,0.0645,0.0639,0.0627,0.0613,0.0598,0.0588,0.0572,0.0551,0.0547,0.0542,0.0541,0.054,0.0538,0.0526,0.0524,0.0548,0.0548,0.0548,0,0,0.0736,0.0724,0.0715,0.0692,0.0681,0.0666,0.0669,0.0653,0.0641,0.0637,0.0617,0.0608,0.0592,0.0571,0.0561,0.0562,0.0531,0.0538,0.0538,0.0536,0.0525,0.0523,0.0521,0.0547,0.0547,0.0547,0,0,0.0719,0.0708,0.0692,0.0682,0.0666,0.0658,0.0654,0.0638,0.0632,0.0612,0.0608,0.0595,0.0568,0.0557,0.0548,0.0529,0.0526,0.0524,0.0517,0.0506,0.0504,0.0503,0.0496,0.0493,0.0522,0.0522,0.0522,0,0.0714,0.0692,0.0684,0.0669,0.0659,0.0655,0.0639,0.0629,0.0609,0.0602,0.0605,0.0572,0.0561,0.0538,0.0533,0.0526,0.0522,0.0525,0.0505,0.0503,0.0502,0.0495,0.0493,0.0522,0.0522,0.0522,0.0522,0,0.0687,0.0672,0.0661,0.0642,0.0631,0.0616,0.0606,0.0596,0.0593,0.0585,0.0565,0.0552,0.0534,0.0528,0.0524,0.0505,0.0506,0.0507,0.0511,0.0499,0.0493,0.049,0.0522,0.0522,0.0522,0.0522,0,0,0.0668,0.0647,0.0643,0.0634,0.0617,0.0605,0.059,0.0573,0.0565,0.0552,0.0539,0.0517,0.0518,0.0508,0.0503,0.0493,0.0479,0.0495,0.0495,0.0492,0.0457,0.0456,0.0454,0.0478,0.0478,0.0477,0.0459,0,0.0648,0.0621,0.0614,0.0591,0.0577,0.0574,0.056,0.0549,0.0541,0.0528,0.052,0.0505,0.0508,0.0502,0.0492,0.0483,0.0472,0.0484,0.0465,0.0465,0.0469,0.045,0.0449,0.0432,0.0456,0.0456,0.0455,0,0.0621,0.0608,0.0583,0.0569,0.0563,0.0551,0.0536,0.0524,0.0511,0.0507,0.0496,0.0492,0.0476,0.0482,0.0461,0.0469,0.0461,0.0456,0.0455,0.0452,0.0459,0.0446,0.0426,0.0423,0.0451,0.0452,0.0452,0,0.061,0.0586,0.0568,0.0561,0.0544,0.0536,0.0529,0.0516,0.0507,0.0494,0.0488,0.0474,0.0465,0.0454,0.0447,0.0452,0.0426,0.0431,0.0421,0.0422,0.0415,0.0415,0.0393,0.0411,0.0411,0.0411,0.0411,0,0.0588,0.0573,0.0563,0.0552,0.0535,0.0528,0.0512,0.0504,0.0494,0.0481,0.0478,0.0467,0.0458,0.0445,0.044,0.0423,0.0419,0.0415,0.0413,0.0415,0.0415,0.0408,0.0409,0.0411,0.0411,0.0411,0.0411,0,0.0571,0.0564,0.0544,0.0531,0.0527,0.0515,0.0503,0.0493,0.0486,0.0471,0.0467,0.0456,0.0442,0.0434,0.0415,0.0411,0.0392,0.0391,0.0396,0.0396,0.0386,0.0387,0.0358,0.0354,0.0376,0.0376,0.0376,0,0.0557,0.0546,0.0531,0.0523,0.0516,0.0503,0.0494,0.0487,0.0478,0.0464,0.0455,0.044,0.0428,0.0404,0.0395,0.0381,0.038,0.0371,0.0377,0.0379,0.0379,0.038,0.0379,0.0369,0.0369,0.0369,0.0368,0,0.0534,0.0531,0.0519,0.0505,0.0495,0.0484,0.0473,0.0466,0.0458,0.0448,0.0433,0.0424,0.0406,0.0391,0.0377,0.0369,0.0367,0.0367,0.0364,0.0364,0.0368,0.0365,0.0392,0.0367,0.0367,0.0367,0.0367,0.0367,0.0518,0.0508,0.0496,0.0483,0.0474,0.0464,0.0454,0.0447,0.0434,0.0419,0.0417,0.0401,0.039,0.037,0.0362,0.035,0.0352,0.0348,0.0346,0.0345,0.0345,0.0371,0.0348,0.0348,0.0348,0.0348,0.0348,0,0.0494,0.0487,0.0474,0.046,0.0449,0.045,0.0438,0.0429,0.0416,0.0405,0.0394,0.0377,0.0364,0.0354,0.034,0.0333,0.0332,0.0329,0.0329,0.0328,0.0344,0.0348,0.033,0.033,0.033,0.033,0.033,0.033,0.048,0.0463,0.0459,0.0438,0.0431,0.0416,0.041,0.0401,0.0393,0.0375,0.0364,0.0358,0.0348,0.0334,0.0322,0.0319,0.0314,0.0312,0.0309,0.0325,0.0326,0.0328,0.0332,0.0311,0.0311,0.0294,0.0293,0.0293]},{"header":{"parameterUnit":"m.s-1","parameterCategory":1,"la1":30.2991,"la2":30.254,"lo1":-89.0895,"lo2":-89.0444,"dy":0.0017,"dx":0.0017,"nx":28,"ny":28,"refTime":"2025-12-05T09:00:00:Z","depth":0,"parameterNumber":3,"parameterNumberName":"V-component_of_WINDS"},"data":[0,0,0,0,0,0,0,0,0,0,0,0,0,0,0,0,0,0,0,0,0,0,0,0,0,0,0,0,0,0,0,0,0,0,0,0,0,0,0,0,0,0,0,0,0,0,0,0,0,0,0,0,0,0,0,0,0,0,-5.5438,-5.5439,0,-5.5564,-5.5566,-5.5567,-5.5518,-5.5515,-5.5512,-5.5509,-5.5633,-5.5639,-5.5645,0,0,0,0,0,0,0,0,0,0,0,0,0,-5.5149,-5.5155,-5.5438,-5.5439,-5.5441,-5.5564,-5.5566,-5.5567,-5.5518,-5.5515,-5.5511,-5.5508,-5.5631,-5.5638,-5.5645,0,0,0,0,0,0,0,0,0,0,0,0,0,-5.5275,-5.5156,-5.5438,-5.5431,-5.5432,-5.5564,-5.5566,-5.5568,-5.5519,-5.5515,-5.551,-5.5506,-5.5629,-5.5637,-5.5646,-5.579,0,0,-5.5674,-5.5678,0,0,0,0,0,0,0,0,-5.5268,-5.5285,-5.5431,-5.5432,-5.5433,-5.5521,-5.5509,-5.5642,-5.552,-5.5486,-5.5509,-5.5504,-5.5599,-5.561,-5.5643,-5.5795,-5.5801,-5.5675,-5.568,-5.5684,-5.5687,0,0,0,0,0,0,0,-5.5259,-5.528,-5.5488,-5.5433,-5.5434,-5.5421,-5.5434,-5.5534,-5.5565,-5.5489,-5.5485,-5.5501,-5.5599,-5.5635,-5.5646,-5.5803,-5.5674,-5.5682,-5.5688,-5.5692,-5.6079,-5.6084,0,0,0,0,0,0,-5.5251,-5.5273,-5.5484,-5.5491,-5.5338,-5.543,-5.5444,-5.5497,-5.5564,-5.557,-5.5505,-5.5498,-5.5621,-5.5635,-5.565,-5.5823,-5.5684,-5.5692,-5.5698,-5.6074,-5.608,-5.6085,0,0,0,0,0,0,-5.5245,-5.527,-5.5479,-5.5381,-5.5407,-5.5439,-5.5499,-5.5502,-5.5538,-5.5576,-5.5581,-5.5536,-5.5618,-5.5637,-5.5756,-5.5826,-5.5697,-5.5705,-5.6068,-5.6076,-5.6083,-5.6169,0,0,0,0,0,0,-5.5237,-5.5268,-5.5324,-5.5383,-5.5412,-5.5584,-5.5503,-5.5507,-5.5554,-5.5547,-5.5607,-5.5613,-5.5616,-5.5743,-5.5765,-5.5836,-5.5712,-5.6062,-5.6072,-5.608,-5.616,-5.6179,-5.6195,0,0,0,0,0,-5.5226,-5.5342,-5.5327,-5.5353,-5.5483,-5.5588,-5.5605,-5.5608,-5.556,-5.5616,-5.5641,-5.5611,-5.5815,-5.5755,-5.578,-5.5855,-5.6058,-5.6069,-5.608,-5.6153,-5.6175,-5.6194,0,0,0,0,0,0,-5.5289,-5.535,-5.5334,-5.5472,-5.5526,-5.558,-5.5651,-5.5632,-5.5699,-5.5689,-5.5688,-5.5702,-5.5825,-5.5851,-5.5784,-5.5997,-5.5929,-5.5945,-5.5976,-5.5998,-5.6014,-5.6006,-5.5719,0,0,0,0,0,-5.5319,-5.5401,-5.5449,-5.5566,-5.5594,-5.5618,-5.5664,-5.5662,-5.5717,-5.5738,-5.5772,-5.5824,-5.59,-5.595,-5.6022,-5.6164,-5.6176,-5.6228,-5.6245,-5.6258,-5.6273,-5.635,-5.6374,-5.6121,-5.6121,-5.6121,0,0,-5.5381,-5.5425,-5.5476,-5.558,-5.5621,-5.5705,-5.5637,-5.5728,-5.579,-5.5751,-5.5867,-5.5893,-5.5951,-5.6082,-5.6142,-5.6108,-5.6345,-5.6272,-5.6283,-5.629,-5.6364,-5.6388,-5.6409,-5.6129,-5.6127,-5.6126,0,0,-5.5539,-5.558,-5.5683,-5.5726,-5.579,-5.5805,-5.583,-5.5887,-5.5904,-5.602,-5.5993,-5.6065,-5.6195,-5.6239,-5.6277,-5.6452,-5.6427,-5.6475,-5.6564,-5.6639,-5.6659,-5.6677,-5.6739,-5.6762,-5.6489,-5.6489,-5.6489,0,-5.5608,-5.5735,-5.5737,-5.5832,-5.5878,-5.5849,-5.5953,-5.5993,-5.6077,-5.6109,-5.6071,-5.6235,-5.6272,-5.6413,-5.6456,-5.6488,-5.6516,-5.6468,-5.6656,-5.6674,-5.6691,-5.675,-5.6774,-5.6494,-5.6494,-5.6493,-5.6493,0,-5.5817,-5.5905,-5.598,-5.6064,-5.6119,-5.6217,-5.6234,-5.6288,-5.6281,-5.63,-5.6418,-5.6462,-5.6542,-5.6575,-5.6569,-5.6716,-5.6693,-5.6656,-5.6587,-5.672,-5.6776,-5.6799,-5.6502,-5.65,-5.6499,-5.6497,0,0,-5.6017,-5.6102,-5.613,-5.6168,-5.6236,-5.6304,-5.64,-5.6481,-5.6528,-5.6586,-5.6667,-5.6778,-5.6745,-5.6789,-5.6787,-5.6853,-5.6989,-5.6807,-5.6809,-5.684,-5.7154,-5.7182,-5.7209,-5.6972,-5.6977,-5.698,-5.7149,0,-5.618,-5.6352,-5.6358,-5.6514,-5.6596,-5.6569,-5.6653,-5.6703,-5.6723,-5.6794,-5.6814,-5.6894,-5.6844,-5.687,-5.6934,-5.6959,-5.7052,-5.6946,-5.7046,-5.705,-5.7034,-5.7238,-5.7268,-5.7425,-5.7171,-5.7175,-5.7177,0,-5.6394,-5.6461,-5.6627,-5.6685,-5.6719,-5.6795,-5.6869,-5.6938,-5.6994,-5.7003,-5.7054,-5.7042,-5.7139,-5.7067,-5.72,-5.7128,-5.7169,-5.7187,-5.7193,-5.7203,-5.7122,-5.7254,-5.7475,-5.75,-5.7212,-5.7209,-5.7206,0,-5.6524,-5.6656,-5.6773,-5.6806,-5.6876,-5.693,-5.6961,-5.7013,-5.7061,-5.7126,-5.7157,-5.7231,-5.7272,-5.7329,-5.7337,-5.7284,-5.7471,-5.7399,-5.7481,-5.7481,-5.7523,-5.752,-5.7755,-5.7548,-5.7547,-5.7547,-5.7546,0,-5.6706,-5.6809,-5.6832,-5.6904,-5.7018,-5.7022,-5.7134,-5.716,-5.7207,-5.7282,-5.7262,-5.7333,-5.7339,-5.7411,-5.7418,-5.7527,-5.7545,-5.7555,-5.7556,-5.7558,-5.7557,-5.7585,-5.7575,-5.7553,-5.7552,-5.7551,-5.755,0,-5.6872,-5.6892,-5.7017,-5.7074,-5.709,-5.7171,-5.7219,-5.7287,-5.7305,-5.74,-5.7422,-5.745,-5.7534,-5.7548,-5.7646,-5.765,-5.7782,-5.7771,-5.7764,-5.7763,-5.7844,-5.7837,-5.8106,-5.8142,-5.7911,-5.7913,-5.7915,0,-5.6987,-5.7066,-5.7131,-5.7182,-5.7216,-5.7297,-5.7347,-5.7354,-5.7406,-5.7477,-5.7536,-5.7618,-5.7685,-5.782,-5.7847,-5.7922,-5.7913,-5.8002,-5.7924,-5.7924,-5.7915,-5.7911,-5.7919,-5.8018,-5.802,-5.8022,-5.8024,0,-5.719,-5.7197,-5.727,-5.7349,-5.7409,-5.747,-5.7528,-5.757,-5.7584,-5.7643,-5.7731,-5.7782,-5.7884,-5.7965,-5.804,-5.807,-5.805,-5.8048,-5.8071,-5.8074,-5.8068,-5.8073,-5.7806,-5.8042,-5.804,-5.8039,-5.8038,-5.8037,-5.7335,-5.7404,-5.7461,-5.7544,-5.7589,-5.7643,-5.7711,-5.7738,-5.7811,-5.7896,-5.7894,-5.799,-5.8043,-5.8142,-5.8177,-5.825,-5.8221,-5.8254,-5.8263,-5.8271,-5.828,-5.8056,-5.8263,-5.8263,-5.8262,-5.8262,-5.8262,0,-5.7537,-5.7574,-5.765,-5.7733,-5.7798,-5.7775,-5.7837,-5.7893,-5.7978,-5.8031,-5.8097,-5.8197,-5.8276,-5.8311,-5.8389,-5.8441,-5.8434,-5.8461,-5.8458,-5.8465,-5.8301,-5.8274,-5.8466,-5.8466,-5.8466,-5.8466,-5.8466,-5.8466,-5.7651,-5.7767,-5.778,-5.7917,-5.7952,-5.8047,-5.8085,-5.8135,-5.8177,-5.829,-5.8357,-5.838,-5.8425,-5.8506,-5.8577,-5.8585,-5.8615,-5.8647,-5.8651,-5.8497,-5.8476,-5.8457,-5.8431,-5.8653,-5.8654,-5.8809,-5.881,-5.8811]}]]